COSMOS 2581

导读

COSMOS 2581(宇宙2581)是独联体(CIS,俄罗斯)发射的军事卫星,于2025年2月2日从普列谢茨克航天发射场,由联盟-2.1V火箭发射入轨。它和Kosmos 2582、2583一同进入距地面约585公里的近极轨道,任务目的未公开。入轨后该卫星系列表现出特殊活动,释放了未知物体,引发航天观测界和分析人士的广泛关注。

基本信息
目录编号:
62902
目录名称:
COSMOS 2581
国际标识:
2025-026A
轨道中心:
EARTH
卫星名称:
COSMOS 2581
卫星全名:
COSMOS 2581
卫星状态:
在轨 (已飞行494 天)
发射日期:
2025-02-05 UTC
国别 :
俄罗斯(独联体) (CIS)
星等 :
--
轨道信息
数据来源 国际轨道数据 AOE轨道数据
星历时间 2026-06-15T01:53:28+0800
4小时前
查看轨道信息
2026-06-14T02:00:00+0800
1天前
查看轨道信息
半长轴 6960.521km 6960.523km
偏心率 0.001154 0.0011549
轨道倾角 81.996° 81.997°
近地点辐角 67.057° 69.327°
升交点赤经 76.990° 78.005°
平近点角 293.187° 336.627°
近地点 574.351km 574.347km
远地点 590.417km 590.425km
周期 96.321分钟 96.321分钟
每日圈数 14.949965 14.949959
详细信息
使用方式:
暂无
2D轨道图
3D轨道图
轨道高度分析图
轨道倾角分析图
轨道综合分析图
查看轨道综合分析图